EW3861 Weather Reports


time (UTC)temp
C
wind
direction
speed
KPH
gust
KPH
rain 1hr
cm
rain 24hr
cm
rain mn
cm
humidity
%
barometer
mb
20260505191606 22 238 0.0 0.0 0.00 0.00 0.00 53 1007.5
20260505190012 23 231 0.0 0.0 0.00 0.00 0.00 51 1007.7
20260505184636 24 204 0.0 0.0 0.00 0.00 0.00 49 1007.5
20260505183051 24 220 0.0 0.0 0.00 0.00 0.00 50 1007.5
20260505181512 23 226 0.0 0.0 0.00 0.00 0.00 51 1007.9
20260505180010 23 221 0.0 0.0 0.00 0.00 0.00 53 1008.0
20260505174612 23 294 0.0 0.0 0.00 0.00 0.00 52 1008.2
20260505173021 23 272 0.0 0.0 0.00 0.00 0.00 52 1008.5
20260505171611 23 222 0.0 0.0 0.00 0.00 0.00 57 1008.4
20260505170025 22 202 0.0 0.0 0.00 0.00 0.00 56 1008.5
20260505164632 22 153 0.0 0.0 0.00 0.00 0.00 58 1008.8
20260505163046 22 229 0.0 0.0 0.00 0.00 0.00 56 1008.9
20260505161508 22 196 0.0 0.0 0.00 0.00 0.00 57 1009.0
20260505153125 21 235 0.0 0.0 0.00 0.00 0.00 60 1009.1
20260505151546 20 219 0.0 0.0 0.00 0.00 0.00 61 1009.1
20260505140111 17 229 0.0 0.0 0.00 0.00 0.00 69 1009.6
20260505124512 15 229 0.0 0.0 0.00 0.00 0.00 80 1010.0
20260505123100 13 219 0.0 0.0 0.00 0.00 0.00 82 1010.0
20260505121517 12 234 0.0 0.0 0.00 0.00 0.00 84 1009.8
20260505120109 12 242 0.0 0.0 0.00 0.00 0.00 87 1009.8
20260505114521 11 206 0.0 0.0 0.00 0.00 0.00 90 1009.9
20260505113113 11 237 0.0 0.0 0.00 0.00 0.00 93 1009.9
20260505111529 10 211 0.0 0.0 0.00 0.00 0.00 95 1009.9
20260505101610 8 211 0.0 0.0 0.00 0.00 0.00 94 1009.5
20260505100052 8 211 0.0 0.0 0.00 0.00 0.00 94 1009.6
20260505094629 8 211 0.0 0.0 0.00 0.00 0.00 94 1009.6
20260505093101 8 211 0.0 0.0 0.00 0.00 0.00 94 1009.7
20260505091513 8 211 0.0 0.0 0.00 0.00 0.00 93 1009.8
20260505090108 8 211 0.0 0.0 0.00 0.00 0.00 93 1009.8
20260505084545 7 211 0.0 0.0 0.00 0.00 0.00 92 1009.8
20260505083051 7 211 0.0 0.0 0.00 0.00 0.00 91 1009.9
20260505081505 8 211 0.0 0.0 0.00 0.00 0.00 91 1009.9
20260505074550 8 211 0.0 0.0 0.00 0.00 0.00 90 1009.9
20260505073028 8 211 0.0 0.0 0.00 0.00 0.00 89 1010.0
20260505071554 8 211 0.0 0.0 0.00 0.00 0.00 89 1010.0
20260505070006 8 211 0.0 0.0 0.00 0.00 0.00 88 1010.0
20260505064602 8 211 0.0 0.0 0.00 0.00 0.00 88 1010.0
20260505063017 9 211 0.0 0.0 0.00 0.00 0.00 88 1010.2
20260505061601 9 212 0.0 0.0 0.00 0.00 0.00 87 1010.2
20260505060016 9 213 0.0 0.0 0.00 0.00 0.00 87 1010.2
20260505054635 10 215 0.0 0.0 0.00 0.00 0.00 87 1010.2
20260505053044 10 215 0.0 0.0 0.00 0.00 0.00 86 1010.2
20260505051633 10 213 0.0 0.0 0.00 0.00 0.00 85 1010.2
20260505041522 10 219 0.0 0.0 0.00 0.00 0.00 81 1010.5
20260505040009 10 216 0.0 0.0 0.00 0.00 0.00 80 1010.4
20260505034635 11 227 0.0 0.0 0.00 0.00 0.00 79 1010.4
20260505033054 11 219 0.0 0.0 0.00 0.00 0.00 78 1010.2
20260505031509 11 224 0.0 0.0 0.00 0.00 0.00 77 1010.3
20260505030110 11 229 0.0 0.0 0.00 0.00 0.00 76 1010.4
20260505024551 11 217 0.0 0.0 0.00 0.00 0.00 75 1010.4
20260505023010 12 220 0.0 0.0 0.00 0.00 0.00 74 1010.4
20260505021600 12 220 0.0 0.0 0.00 0.00 0.00 72 1010.5
20260505020028 12 213 0.0 0.0 0.00 0.00 0.00 71 1010.5
20260505014508 12 209 0.0 0.0 0.00 0.00 0.00 69 1010.4
20260505013101 12 227 0.0 0.0 0.00 0.00 0.00 67 1010.3
20260505011522 13 244 0.0 0.0 0.00 0.00 0.00 64 1010.1
20260505010119 13 229 0.0 0.0 0.00 0.00 0.00 62 1009.8
20260505004533 13 213 0.0 0.0 0.00 0.00 0.00 61 1009.5
20260505003126 13 211 0.0 0.0 0.00 0.00 0.00 60 1009.1
20260505001541 14 221 0.0 0.0 0.00 0.00 0.00 58 1008.9
20260505000008 14 208 0.0 0.0 0.00 0.00 0.00 57 1008.5
20260504234617 15 245 0.0 0.0 0.00 0.00 0.00 56 1008.4
20260504233041 15 205 0.0 0.0 0.00 0.00 0.00 54 1008.2
20260504231630 16 290 0.0 0.0 0.00 0.00 0.00 51 1008.0
20260504230057 16 219 0.0 0.0 0.00 0.00 0.00 50 1007.6
20260504224512 17 200 0.0 0.0 0.00 0.00 0.00 48 1007.3
20260504223107 18 217 0.0 0.0 0.00 0.00 0.00 45 1007.3
20260504221537 18 154 0.0 0.0 0.00 0.00 0.00 44 1007.2
20260504220110 18 234 0.0 0.0 0.00 0.00 0.00 44 1007.1
20260504214544 19 202 0.0 0.0 0.00 0.00 0.00 42 1007.1
20260504213004 20 188 0.0 0.0 0.00 0.00 0.00 39 1006.9
20260504211552 20 217 0.0 0.0 0.00 0.00 0.00 40 1006.8
20260504210004 20 221 0.0 0.0 0.00 0.00 0.00 38 1006.7
20260504204605 20 234 0.0 0.0 0.00 0.00 0.00 36 1006.7
20260504203011 21 217 0.0 0.0 0.00 0.00 0.00 34 1006.7
20260504201553 21 294 0.0 0.0 0.00 0.00 0.00 33 1006.7
20260504200013 21 314 0.0 0.0 0.00 0.00 0.00 33 1006.7
20260504194622 21 221 0.0 0.0 0.00 0.00 0.00 32 1006.8
20260504193042 21 203 0.0 0.0 0.00 0.00 0.00 32 1006.8